EW1440 Weather Reports


Display with metric or nautical units.
time (UTC)temp
F
wind
direction
speed
MPH
gust
MPH
rain 1hr
in
rain 24hr
in
rain mn
in
humidity
%
barometer
mb
20260507103532 65 39 8.0 14.0 0.00 0.00 0.00 80 1014.5
20260507103046 65 68 7.0 12.0 0.00 0.00 0.00 80 1014.4
20260507102532 65 41 6.0 12.0 0.00 0.00 0.00 80 1014.4
20260507102032 65 34 7.0 12.0 0.00 0.00 0.00 80 1014.7
20260507101601 65 44 6.0 10.0 0.00 0.00 0.00 80 1014.7
20260507101030 65 80 3.0 12.0 0.00 0.00 0.00 80 1014.7
20260507100531 65 51 4.0 12.0 0.00 0.00 0.00 80 1014.7
20260507100048 65 48 7.0 12.0 0.00 0.00 0.00 80 1014.5
20260507095533 65 37 6.0 10.0 0.00 0.00 0.00 80 1014.4
20260507095031 65 54 5.0 12.0 0.00 0.00 0.00 80 1014.6
20260507094556 65 52 6.0 12.0 0.00 0.00 0.00 81 1014.5
20260507094031 65 83 5.0 12.0 0.00 0.00 0.00 81 1014.6
20260507093531 65 37 5.0 11.0 0.00 0.00 0.00 81 1014.6
20260507093046 65 6 6.0 11.0 0.00 0.00 0.00 81 1014.6
20260507092534 65 51 6.0 11.0 0.00 0.00 0.00 81 1014.6
20260507092034 65 29 5.0 11.0 0.00 0.00 0.00 81 1014.7
20260507091555 65 63 3.0 9.0 0.00 0.00 0.00 81 1014.7
20260507091031 65 50 5.0 9.0 0.00 0.00 0.00 80 1014.7
20260507090533 65 38 4.0 12.0 0.00 0.00 0.00 81 1014.6
20260507085534 65 59 8.0 12.0 0.00 0.00 0.00 80 1014.7
20260507085031 65 47 8.0 13.0 0.00 0.00 0.00 80 1014.8
20260507084547 65 56 5.0 13.0 0.00 0.00 0.00 80 1014.7
20260507084033 65 51 7.0 13.0 0.00 0.00 0.00 80 1014.7
20260507083537 65 43 6.0 12.0 0.00 0.00 0.00 81 1014.7
20260507083048 65 41 4.0 12.0 0.00 0.00 0.00 81 1014.8
20260507082533 65 20 6.0 12.0 0.00 0.00 0.00 81 1014.7
20260507082035 65 33 6.0 10.0 0.00 0.00 0.00 81 1014.9
20260507081554 65 64 3.0 9.0 0.00 0.00 0.00 81 1014.9
20260507081034 65 38 4.0 11.0 0.00 0.00 0.00 80 1015.0
20260507080535 65 51 6.0 11.0 0.00 0.00 0.00 80 1015.0
20260507080044 65 43 5.0 10.0 0.00 0.00 0.00 80 1015.1
20260507075531 65 65 6.0 11.0 0.00 0.00 0.00 80 1015.2
20260507075033 65 50 5.0 11.0 0.00 0.00 0.00 80 1015.1
20260507074544 65 22 4.0 10.0 0.00 0.00 0.00 80 1015.1
20260507074033 65 43 4.0 9.0 0.00 0.00 0.00 80 1015.0
20260507073531 65 27 5.0 9.0 0.00 0.00 0.00 80 1015.0
20260507073056 65 45 5.0 12.0 0.00 0.00 0.00 80 1015.0
20260507072531 65 69 5.0 14.0 0.00 0.00 0.00 80 1015.1
20260507072034 65 38 8.0 14.0 0.00 0.00 0.00 80 1015.3
20260507071548 65 58 7.0 14.0 0.00 0.00 0.00 80 1015.3
20260507071034 65 72 5.0 11.0 0.00 0.00 0.00 80 1015.4
20260507070534 65 78 6.0 11.0 0.00 0.00 0.00 81 1015.4
20260507070135 65 87 7.0 11.0 0.00 0.00 0.00 81 1015.4
20260507065534 65 60 5.0 10.0 0.00 0.00 0.00 81 1015.4
20260507065033 65 56 4.0 12.0 0.00 0.00 0.00 81 1015.6
20260507064550 65 70 5.0 12.0 0.00 0.00 0.00 81 1015.4
20260507064034 65 105 6.0 10.0 0.00 0.00 0.00 82 1015.1
20260507063532 65 51 6.0 10.0 0.00 0.00 0.00 82 1015.2
20260507063047 65 74 3.0 10.0 0.00 0.00 0.00 82 1015.2
20260507062535 65 73 5.0 10.0 0.00 0.00 0.00 82 1015.1
20260507062034 65 65 4.0 8.0 0.00 0.00 0.00 83 1014.9
20260507061547 65 53 3.0 8.0 0.00 0.00 0.00 83 1015.0
20260507061034 65 79 3.0 8.0 0.00 0.00 0.00 83 1015.0
20260507060531 65 70 5.0 8.0 0.00 0.00 0.00 83 1015.0
20260507060047 65 94 4.0 8.0 0.00 0.00 0.00 83 1014.7
20260507055534 65 100 5.0 9.0 0.00 0.00 0.00 82 1014.7
20260507055034 65 68 4.0 10.0 0.00 0.00 0.00 82 1014.7
20260507054552 65 66 6.0 10.0 0.00 0.00 0.00 82 1014.5
20260507054032 65 62 4.0 9.0 0.00 0.00 0.00 82 1014.4
20260507053533 65 65 4.0 10.0 0.00 0.00 0.00 82 1014.4
20260507053044 65 83 6.0 12.0 0.00 0.00 0.00 82 1014.3
20260507052533 65 72 6.0 12.0 0.00 0.00 0.00 82 1014.0
20260507052031 65 55 6.0 12.0 0.00 0.00 0.00 82 1014.2
20260507051549 65 57 4.0 11.0 0.00 0.00 0.00 82 1014.1
20260507051033 65 51 6.0 12.0 0.00 0.00 0.00 82 1014.1
20260507050533 65 57 5.0 12.0 0.00 0.00 0.00 82 1013.8
20260507050048 65 72 7.0 12.0 0.00 0.00 0.00 82 1013.7
20260507045534 66 91 6.0 10.0 0.00 0.00 0.00 82 1013.8
20260507045037 66 60 4.0 10.0 0.00 0.00 0.00 82 1013.9
20260507044549 66 68 5.0 10.0 0.00 0.00 0.00 82 1013.9
20260507044032 66 47 4.0 9.0 0.00 0.00 0.00 82 1014.0
20260507043531 66 85 4.0 11.0 0.00 0.00 0.00 82 1013.9
20260507043049 66 76 6.0 11.0 0.00 0.00 0.00 82 1013.9
20260507042530 66 56 5.0 11.0 0.00 0.00 0.00 82 1014.0
20260507042035 66 37 4.0 9.0 0.00 0.00 0.00 82 1014.3
20260507041549 66 43 3.0 9.0 0.00 0.00 0.00 82 1014.2
20260507041033 66 43 4.0 9.0 0.00 0.00 0.00 81 1014.2
20260507040531 66 37 2.0 9.0 0.00 0.00 0.00 82 1014.1
20260507040051 66 47 2.0 9.0 0.00 0.00 0.00 82 1013.8
20260507035533 66 46 3.0 9.0 0.00 0.00 0.00 81 1013.7
20260507035034 66 5 4.0 11.0 0.00 0.00 0.00 81 1013.6
20260507034549 66 60 5.0 11.0 0.00 0.00 0.00 81 1013.4
20260507034033 66 41 7.0 10.0 0.00 0.00 0.00 81 1013.4
20260507033537 66 45 6.0 10.0 0.00 0.00 0.00 81 1013.2
20260507033048 66 64 5.0 9.0 0.00 0.00 0.00 81 1013.1
20260507032534 66 45 5.0 9.0 0.00 0.00 0.00 80 1013.2
20260507032033 66 77 5.0 9.0 0.00 0.00 0.00 80 1013.3
20260507031550 66 66 4.0 12.0 0.00 0.00 0.00 80 1013.3
20260507031036 66 98 4.0 12.0 0.00 0.00 0.00 80 1013.1
20260507030531 66 51 5.0 12.0 0.00 0.00 0.00 80 1013.0
20260507030056 67 39 6.0 12.0 0.00 0.00 0.00 80 1012.9
20260507025532 67 36 6.0 12.0 0.00 0.00 0.00 80 1013.0
20260507025035 67 49 6.0 11.0 0.00 0.00 0.00 79 1013.0
20260507024548 67 33 3.0 12.0 0.00 0.00 0.00 79 1013.0
20260507024035 67 35 7.0 16.0 0.00 0.00 0.00 79 1012.9
20260507023537 67 49 7.0 16.0 0.00 0.00 0.00 78 1012.9
20260507023048 67 31 9.0 15.0 0.00 0.00 0.00 78 1012.7
20260507022532 67 21 8.0 13.0 0.00 0.00 0.00 78 1012.7
20260507022032 68 33 5.0 13.0 0.00 0.00 0.00 78 1012.8
20260507021602 68 57 6.0 11.0 0.00 0.00 0.00 77 1012.7
20260507021034 68 332 5.0 12.0 0.00 0.00 0.00 77 1012.7
20260507020532 68 16 3.0 13.0 0.00 0.00 0.00 77 1012.6
20260507020056 68 22 4.0 13.0 0.00 0.00 0.00 77 1012.7
20260507015534 69 28 8.0 13.0 0.00 0.00 0.00 76 1012.5
20260507015031 69 29 7.0 13.0 0.00 0.00 0.00 76 1012.4
20260507014609 69 44 5.0 15.0 0.00 0.00 0.00 76 1012.2
20260507014035 69 10 8.0 15.0 0.00 0.00 0.00 75 1012.1
20260507013534 69 58 8.0 17.0 0.00 0.00 0.00 75 1012.0
20260507013053 70 62 9.0 17.0 0.00 0.00 0.00 75 1011.9
20260507012534 70 24 7.0 16.0 0.00 0.00 0.00 74 1011.4
20260507012036 70 26 9.0 15.0 0.00 0.00 0.00 74 1011.5
20260507011548 71 50 7.0 15.0 0.00 0.00 0.00 74 1011.6
20260507011034 71 33 8.0 15.0 0.00 0.00 0.00 73 1011.6
20260507010535 71 349 9.0 15.0 0.00 0.00 0.00 73 1011.5
20260507010100 72 26 9.0 14.0 0.00 0.00 0.00 72 1011.3
20260507005535 72 24 8.0 13.0 0.00 0.00 0.00 73 1011.6
20260507005033 72 58 6.0 12.0 0.00 0.00 0.00 74 1011.6
20260507004547 72 353 5.0 14.0 0.00 0.00 0.00 74 1011.4
20260507004035 72 33 6.0 14.0 0.00 0.00 0.00 73 1011.3
20260507003534 73 37 6.0 16.0 0.00 0.00 0.00 73 1011.1
20260507003047 73 29 7.0 16.0 0.00 0.00 0.00 72 1011.2
20260507002536 74 20 5.0 19.0 0.00 0.00 0.00 73 1011.3
20260507002033 74 36 7.0 19.0 0.00 0.00 0.00 72 1011.1
20260507001552 75 29 9.0 15.0 0.00 0.00 0.00 72 1010.8
20260507001030 75 26 6.0 14.0 0.00 0.00 0.00 72 1010.9
20260507000531 75 20 7.0 17.0 0.00 0.00 0.00 72 1010.9
20260507000048 75 8 7.0 17.0 0.00 0.00 0.00 72 1010.8
20260506235535 75 39 8.0 17.0 0.00 0.00 0.00 72 1010.8
20260506235036 76 29 10.0 17.0 0.00 0.00 0.00 71 1010.5
20260506234547 76 22 9.0 17.0 0.00 0.00 0.00 70 1010.4
20260506234034 76 37 10.0 19.0 0.00 0.00 0.00 71 1010.2
20260506233532 76 2 8.0 19.0 0.00 0.00 0.00 71 1010.1
20260506233049 77 39 9.0 19.0 0.00 0.00 0.00 70 1010.2
20260506232534 77 8 11.0 16.0 0.00 0.00 0.00 69 1010.1
20260506232034 78 345 8.0 16.0 0.00 0.00 0.00 69 1010.0
20260506231546 78 52 7.0 16.0 0.00 0.00 0.00 69 1009.9
20260506231035 78 16 10.0 15.0 0.00 0.00 0.00 69 1009.8
20260506230531 79 7 10.0 16.0 0.00 0.00 0.00 69 1009.7
20260506230103 80 345 8.0 16.0 0.00 0.00 0.00 68 1009.7
20260506225535 81 39 10.0 16.0 0.00 0.00 0.00 68 1009.7
20260506225035 81 350 7.0 17.0 0.00 0.00 0.00 66 1009.6
20260506224549 83 23 8.0 17.0 0.00 0.00 0.00 66 1009.5
20260506224032 85 18 10.0 17.0 0.00 0.00 0.00 63 1009.4
20260506223531 86 47 10.0 20.0 0.00 0.00 0.00 66 1009.3
20260506223047 86 66 10.0 20.0 0.00 0.00 0.00 66 1009.3
20260506222534 87 57 12.0 20.0 0.00 0.00 0.00 65 1009.3
20260506222033 88 340 6.0 12.0 0.00 0.00 0.00 66 1009.2
20260506221548 88 53 5.0 11.0 0.00 0.00 0.00 65 1009.2
20260506221034 88 51 4.0 10.0 0.00 0.00 0.00 65 1009.1
20260506220533 88 354 5.0 11.0 0.00 0.00 0.00 64 1009.1
20260506220051 88 37 6.0 11.0 0.00 0.00 0.00 68 1009.1
20260506215534 88 54 6.0 11.0 0.00 0.00 0.00 65 1009.1
20260506215034 87 6 4.0 12.0 0.00 0.00 0.00 66 1009.1
20260506214547 87 23 6.0 12.0 0.00 0.00 0.00 67 1009.0
20260506214033 87 33 5.0 11.0 0.00 0.00 0.00 69 1009.0
20260506213535 85 63 5.0 11.0 0.00 0.00 0.00 69 1009.2
20260506213047 86 62 7.0 11.0 0.00 0.00 0.00 68 1009.1
20260506212533 87 99 3.0 9.0 0.00 0.00 0.00 67 1009.1
20260506212031 87 10 2.0 6.0 0.00 0.00 0.00 67 1009.3
20260506211547 86 42 2.0 8.0 0.00 0.00 0.00 66 1009.4
20260506211031 88 14 4.0 8.0 0.00 0.00 0.00 65 1009.5
20260506210537 86 85 4.0 8.0 0.00 0.00 0.00 70 1009.5
20260506210051 85 114 2.0 9.0 0.00 0.00 0.00 72 1009.5
20260506205533 86 57 5.0 9.0 0.00 0.00 0.00 68 1009.4
20260506205036 87 88 2.0 8.0 0.00 0.00 0.00 68 1009.5
20260506204547 86 124 2.0 8.0 0.00 0.00 0.00 68 1009.6
20260506204033 86 305 3.0 9.0 0.00 0.00 0.00 68 1009.6
20260506203533 86 30 1.0 9.0 0.00 0.00 0.00 69 1009.8
20260506203051 85 349 3.0 9.0 0.00 0.00 0.00 77 1009.8
20260506202533 84 59 2.0 8.0 0.00 0.00 0.00 69 1009.8
20260506202033 85 62 3.0 9.0 0.00 0.00 0.00 72 1009.8
20260506201606 86 26 3.0 9.0 0.00 0.00 0.00 67 1009.8
20260506201037 84 355 1.0 7.0 0.00 0.00 0.00 68 1009.9
20260506200533 83 72 2.0 9.0 0.00 0.00 0.00 74 1009.9
20260506200052 84 83 4.0 9.0 0.00 0.00 0.00 73 1010.0
20260506195531 84 99 2.0 9.0 0.00 0.00 0.00 71 1009.9
20260506195032 84 2 4.0 9.0 0.00 0.00 0.00 71 1010.1
20260506194552 84 317 0.0 7.0 0.00 0.00 0.00 69 1010.1
20260506194036 85 94 3.0 7.0 0.00 0.00 0.00 71 1010.1
20260506193530 83 18 1.0 4.0 0.00 0.00 0.00 76 1010.3
20260506193054 83 76 1.0 7.0 0.00 0.00 0.00 74 1010.4
20260506192535 83 107 2.0 8.0 0.00 0.00 0.00 75 1010.4
20260506192036 84 0 3.0 8.0 0.00 0.00 0.00 72 1010.5
20260506191547 84 111 3.0 14.0 0.00 0.00 0.00 75 1010.5
20260506191036 84 166 4.0 14.0 0.00 0.00 0.00 72 1010.5
20260506190533 85 120 7.0 13.0 0.00 0.00 0.00 73 1010.6
20260506190047 85 104 5.0 12.0 0.00 0.00 0.00 72 1010.5
20260506185532 84 86 5.0 9.0 0.00 0.00 0.00 75 1010.5
20260506185035 84 112 5.0 10.0 0.00 0.00 0.00 74 1010.6
20260506184551 84 143 5.0 10.0 0.00 0.00 0.00 72 1010.7
20260506184035 83 93 6.0 10.0 0.00 0.00 0.00 76 1010.8
20260506183534 84 118 5.0 10.0 0.00 0.00 0.00 76 1010.8
20260506183047 82 126 5.0 10.0 0.00 0.00 0.00 75 1011.0
20260506182534 83 120 6.0 10.0 0.00 0.00 0.00 74 1011.0
20260506182035 82 151 2.0 8.0 0.00 0.00 0.00 79 1011.1
20260506181549 81 66 4.0 10.0 0.00 0.00 0.00 79 1011.2
20260506181032 81 183 3.0 11.0 0.00 0.00 0.00 78 1011.2
20260506180537 81 97 5.0 11.0 0.00 0.00 0.00 80 1011.3
20260506180049 80 134 6.0 11.0 0.00 0.00 0.00 81 1011.3
20260506175536 79 136 7.0 11.0 0.00 0.00 0.00 84 1011.2
20260506175033 78 141 4.0 9.0 0.00 0.00 0.00 84 1011.3
20260506174545 78 146 5.0 9.0 0.00 0.00 0.00 85 1011.3
20260506174035 78 100 4.0 9.0 0.00 0.00 0.00 86 1011.3
20260506173536 78 119 3.0 8.0 0.00 0.00 0.00 86 1011.4
20260506173105 77 133 3.0 7.0 0.00 0.00 0.00 86 1011.3
20260506172534 77 104 4.0 7.0 0.00 0.00 0.00 86 1011.4
20260506172033 77 106 3.0 9.0 0.00 0.00 0.00 86 1011.4
20260506171554 77 139 3.0 9.0 0.00 0.00 0.00 86 1011.4
20260506171035 77 97 5.0 10.0 0.00 0.00 0.00 86 1011.3
20260506170533 77 97 6.0 10.0 0.00 0.00 0.00 85 1011.4
20260506170044 78 84 7.0 12.0 0.00 0.00 0.00 84 1011.3
20260506165538 79 100 5.0 12.0 0.00 0.00 0.00 85 1011.4
20260506165034 79 79 7.0 12.0 0.00 0.00 0.00 85 1011.3
20260506164547 78 96 7.0 12.0 0.00 0.00 0.00 84 1011.4
20260506164035 78 108 7.0 12.0 0.00 0.00 0.00 85 1011.4
20260506163533 78 88 7.0 10.0 0.00 0.00 0.00 86 1011.3
20260506163101 78 69 6.0 9.0 0.00 0.00 0.00 86 1011.3
20260506162534 77 102 4.0 9.0 0.00 0.00 0.00 86 1011.3
20260506162037 77 42 6.0 9.0 0.00 0.00 0.00 87 1011.2
20260506161548 77 89 4.0 9.0 0.00 0.00 0.00 89 1011.1
20260506161036 76 76 6.0 9.0 0.00 0.00 0.00 90 1011.1
20260506160535 76 66 6.0 9.0 0.00 0.00 0.00 89 1011.0
20260506160046 76 76 5.0 9.0 0.00 0.00 0.00 89 1011.0
20260506155533 76 62 4.0 9.0 0.00 0.00 0.00 89 1011.0
20260506155034 76 64 3.0 8.0 0.00 0.00 0.00 89 1011.0
20260506154555 76 84 4.0 8.0 0.00 0.00 0.00 89 1010.8
20260506154033 76 64 4.0 8.0 0.00 0.00 0.00 89 1010.8
20260506153534 76 54 3.0 8.0 0.00 0.00 0.00 89 1010.7
20260506153049 76 75 5.0 8.0 0.00 0.00 0.00 89 1010.7
20260506152534 76 38 3.0 6.0 0.00 0.00 0.00 90 1010.7
20260506152037 76 85 3.0 6.0 0.00 0.00 0.00 90 1010.6
20260506151549 76 64 2.0 5.0 0.00 0.00 0.00 90 1010.6
20260506151033 76 50 2.0 5.0 0.00 0.00 0.00 90 1010.6
20260506150534 76 60 3.0 5.0 0.00 0.00 0.00 90 1010.6
20260506150048 75 58 2.0 6.0 0.00 0.00 0.00 90 1010.4
20260506145536 75 62 2.0 6.0 0.00 0.00 0.00 91 1010.4
20260506145039 75 62 2.0 6.0 0.00 0.00 0.00 91 1010.4
20260506144548 75 65 2.0 6.0 0.00 0.00 0.00 91 1010.3
20260506144033 75 109 3.0 6.0 0.00 0.00 0.00 91 1010.2
20260506143537 75 92 3.0 6.0 0.00 0.00 0.00 91 1010.2
20260506143045 75 94 2.0 4.0 0.00 0.00 0.00 92 1010.1
20260506142534 75 95 1.0 5.0 0.00 0.00 0.00 92 1010.0
20260506142037 75 120 2.0 6.0 0.00 0.00 0.00 92 1009.9
20260506141553 75 115 2.0 7.0 0.00 0.00 0.00 92 1009.9
20260506141035 75 95 2.0 7.0 0.00 0.00 0.00 92 1009.8
20260506140535 75 105 3.0 7.0 0.00 0.00 0.00 92 1009.8
20260506140055 75 74 2.0 9.0 0.00 0.00 0.00 92 1009.7
20260506135532 75 112 3.0 9.0 0.00 0.00 0.00 92 1009.6
20260506135033 74 135 4.0 9.0 0.00 0.00 0.00 92 1009.3
20260506134548 74 114 5.0 9.0 0.00 0.00 0.00 92 1009.3
20260506134035 74 115 2.0 8.0 0.00 0.00 0.00 92 1009.1
20260506133535 74 119 3.0 9.0 0.00 0.00 0.00 92 1009.0
20260506133045 74 130 4.0 9.0 0.00 0.00 0.00 92 1009.0
20260506132534 74 135 3.0 7.0 0.00 0.00 0.00 92 1008.9
20260506132034 74 145 4.0 7.0 0.00 0.00 0.00 92 1009.0
20260506131548 74 126 3.0 7.0 0.00 0.00 0.00 92 1009.1
20260506131036 74 150 2.0 8.0 0.00 0.00 0.00 92 1008.9
20260506130534 74 124 2.0 10.0 0.00 0.00 0.00 92 1008.8
20260506130052 74 138 5.0 10.0 0.00 0.00 0.00 92 1008.8
20260506125535 74 147 4.0 8.0 0.00 0.00 0.00 92 1008.7
20260506125033 74 154 4.0 8.0 0.00 0.00 0.00 92 1008.6
20260506124545 74 136 4.0 8.0 0.00 0.00 0.00 92 1008.7
20260506124033 74 124 3.0 8.0 0.00 0.00 0.00 92 1008.7
20260506123533 74 139 3.0 8.0 0.00 0.00 0.00 92 1008.6
20260506123042 74 121 4.0 8.0 0.00 0.00 0.00 92 1008.7
20260506122533 74 86 4.0 8.0 0.00 0.00 0.00 92 1008.7
20260506122033 74 129 2.0 6.0 0.00 0.00 0.00 92 1008.7
20260506121549 74 127 2.0 5.0 0.00 0.00 0.00 92 1008.7
20260506121034 74 114 1.0 4.0 0.00 0.00 0.00 91 1008.7
20260506120534 74 89 2.0 8.0 0.00 0.00 0.00 91 1008.7
20260506120106 74 172 3.0 8.0 0.00 0.00 0.00 91 1008.7
20260506115534 74 103 3.0 7.0 0.00 0.00 0.00 91 1008.6
20260506115033 74 114 3.0 7.0 0.00 0.00 0.00 91 1008.6
20260506114558 74 109 2.0 5.0 0.00 0.00 0.00 91 1008.5
20260506114033 74 120 1.0 5.0 0.00 0.00 0.00 91 1008.6
20260506113533 74 124 2.0 5.0 0.00 0.00 0.00 91 1008.6
20260506113046 74 119 2.0 5.0 0.00 0.00 0.00 91 1008.6
20260506112535 74 116 1.0 5.0 0.00 0.00 0.00 91 1008.6
20260506112034 74 126 2.0 5.0 0.00 0.00 0.00 91 1008.6
20260506111553 74 99 2.0 4.0 0.00 0.00 0.00 91 1008.6
20260506111033 74 63 0.0 3.0 0.00 0.00 0.00 91 1008.6
20260506110534 74 63 1.0 3.0 0.00 0.00 0.00 91 1008.6
20260506110051 74 0 0.0 3.0 0.00 0.00 0.00 91 1008.7
20260506105532 74 0 1.0 3.0 0.00 0.00 0.00 91 1008.7
20260506105036 74 122 0.0 5.0 0.00 0.00 0.00 91 1008.6
20260506104547 74 122 1.0 5.0 0.00 0.00 0.00 91 1008.7
20260506104034 74 0 1.0 5.0 0.00 0.00 0.00 91 1008.6